Regional Weather Roundup
Issued by NWS

Home | Current Version | Previous Version | Graphics & Text | Print | Product List | Glossary Off
Versions: 1 2 3 4 5 6 7 8 9 10 11 12 13 14 15 16 17 18 19 20 21 22 23 24 25 26 27 28 29 30 31 32 33 34 35 36 37 38 39 40 41 42 43 44 45 46 47 48 49 50

000
ASUS43 KOAX 021010
RWRNE

WEATHER ROUNDUP FOR NEBRASKA
NATIONAL WEATHER SERVICE OMAHA NE
500 AM CDT MON MAY 02 2016

NOTES: SATELLITE DATA IS BEING USED TO AUGMENT CLOUD COVER ABOVE
       12000 FEET.
       "FAIR" INDICATES FEW OR NO CLOUDS BELOW 12,000 FEET WITH NO
       SIGNIFICANT WEATHER AND/OR OBSTRUCTIONS TO VISIBILITY.

  * THESE STATIONS DO NOT REPORT WEATHER SUCH AS RAIN...SNOW OR FOG.

NEZ001>004-019>022-054>056-021100-
NEBRASKA PANHANDLE

CITY           SKY/WX    TMP DP  RH WIND       PRES   REMARKS
SCOTTSBLUFF    CLEAR     32  28  85 NW9       30.23F WCI  24
ALLIANCE       CLEAR     24  22  91 W8        30.20F WCI  15
CHADRON        CLEAR     30  27  88 SW3       30.22S
KIMBALL        CLEAR     26  24  91 W5        30.24S WCI  21
SIDNEY         CLEAR     30  24  78 W14       30.23S WCI  19
$$

NEZ057>060-069>072-079>082-021100-
SOUTHWEST NEBRASKA

CITY           SKY/WX    TMP DP  RH WIND       PRES   REMARKS
NORTH PLATTE   CLEAR     28  27  96 NW5       30.21F WCI  23
IMPERIAL       CLEAR     34  29  82 W9        30.23S WCI  27
LEXINGTON      CLEAR     33  31  93 W7        30.20F WCI  27
MCCOOK         PTCLDY    35  32  88 W6        30.22S WCI  30
OGALLALA       CLEAR     30  28  90 CALM      30.22F
$$

NEZ005>010-023>029-035>040-094-021100-
NORTH CENTRAL NEBRASKA

CITY           SKY/WX    TMP DP  RH WIND       PRES   REMARKS
VALENTINE      CLEAR     31  27  85 W8        30.19S WCI  23
AINSWORTH      CLEAR     35  32  88 W5        30.18S WCI  31
BROKEN BOW     CLEAR     30  28  92 CALM      30.19S
O`NEILL        CLEAR     38  34  85 W7        30.17S WCI  33
ORD            CLEAR     32  31  96 W5        30.18S WCI  27
THEDFORD         N/A     30  29  96 CALM      30.21S
$$

NEZ041-046>049-061>064-073>077-083>087-021100-
SOUTH CENTRAL NEBRASKA

CITY           SKY/WX    TMP DP  RH WIND       PRES   REMARKS
GRAND ISLAND   PTCLDY    39  36  89 W8        30.18F WCI  33
AURORA         CLEAR     40  38  96 NW7       30.17F WCI  35
HASTINGS       CLOUDY    44  40  85 NW7       30.17F
HEBRON         CLOUDY    47  43  88 NW6       30.16F
HOLDREGE       CLEAR     38  35  90 N5        30.19S WCI  34
KEARNEY *      CLEAR     36  32  87 NW8       30.19S WCI  29
YORK           PTCLDY    41  39  93 NW9       30.16F
$$

NEZ011>018-030>034-042>045-021100-
NORTHEAST NEBRASKA

CITY           SKY/WX    TMP DP  RH WIND       PRES   REMARKS
NORFOLK        CLEAR     36  33  89 W7        30.15F WCI  30
ALBION         CLEAR     32  30  93 NW3       30.17F
BLAIR          CLOUDY    47  41  81 NW9       30.12F
COLUMBUS *     MOCLDY    41  30  65 W6        30.17S
FREMONT        MOCLDY    42  41  97 W5        30.15S
TEKAMAH        PTCLDY    43  39  86 N6        30.14S
WAYNE          CLEAR     33  32  96 CALM      30.15F
$$

NEZ050>053-065>068-078-088>093-021100-
SOUTHEAST NEBRASKA

CITY           SKY/WX    TMP DP  RH WIND       PRES   REMARKS
LINCOLN        CLOUDY    49  41  74 NW7       30.16S
OMAHA EPPLEY   CLOUDY    47  43  86 N6        30.13S
BEATRICE       CLOUDY    47  44  88 NW8       30.14S
FALLS CITY     CLOUDY    47  44  90 W6        30.12F
NEBRASKA CITY  CLOUDY    47  46  97 NW7       30.13S
PLATTSMOUTH    CLOUDY    46  44  93 NW5       30.13S
$$

NEZ044-045-051>053-067-021100-
OMAHA AREA

CITY           SKY/WX    TMP DP  RH WIND       PRES   REMARKS
OMAHA EPPLEY   CLOUDY    47  43  86 N6        30.13S
BLAIR          CLOUDY    47  41  81 NW9       30.12F
FREMONT        MOCLDY    42  41  97 W5        30.15S
MILLARD        CLOUDY    48  43  84 NW5       30.13S
OFFUTT AFB     CLOUDY    47  45  93 W3        30.12S
PLATTSMOUTH    CLOUDY    46  44  93 NW5       30.13S
WAHOO          CLOUDY    47  41  80 NW12      30.13F
$$



USA.gov is the U.S. government's official web portal to all federal, state and local government web resources and services.